BEESAT-1

Last updated on Fri Dec 19 2025 00:03:11 GMT+0000 (Coordinated Universal Time)

1 35933U 09051C 25352.16562787 .00000890 00000+0 19028-3 0 9996 2 35933 98.4077 251.8445 0006539 72.3751 287.8163 14.61290952862748
UTC large
Height (km)
Speed (km/s)
/
Latitude / Longitude
Inclination (degrees)
Orbital Period (minutes)
Azimuth
Elevation
Range (km)
Doppler Factor

Next 0 passes for location: London (51.5072 / 0.1276)

Sorry there are no passes over London.